TimeEST,TemperatureF,Dew PointF,Humidity,Sea Level PressureIn,VisibilityMPH,Wind Direction,Wind SpeedMPH,Gust SpeedMPH,PrecipitationIn,Events,Conditions,WindDirDegrees,DateUTC
12:53 AM,3.0,-0.9,84,30.06,0.5,NW,17.3,-,0.00,Fog-Snow,Light Snow,310,2013-01-21 05:53:00
1:53 AM,1.9,-2.0,83,30.05,0.5,NW,11.5,-,0.00,Fog-Snow,Light Snow,310,2013-01-21 06:53:00
2:16 AM,1.4,-2.2,85,29.96,1.0,NW,11.5,-,0.00,Snow,Light Snow,310,2013-01-21 07:16:00
2:24 AM,1.4,-2.2,85,29.96,0.8,WNW,12.7,-,0.00,Snow,Light Snow,300,2013-01-21 07:24:00
2:33 AM,1.4,-2.2,85,29.96,1.0,WNW,13.8,-,0.00,Snow,Light Snow,300,2013-01-21 07:33:00
2:46 AM,1.4,-2.2,85,29.96,0.5,NW,12.7,-,0.00,Fog-Snow,Snow,320,2013-01-21 07:46:00
2:50 AM,1.4,-2.2,85,29.96,0.2,NW,15.0,-,0.00,Fog-Snow,Snow,320,2013-01-21 07:50:00
2:53 AM,1.9,-2.9,80,30.05,0.2,NW,15.0,-,0.00,Snow,Heavy Snow,310,2013-01-21 07:53:00
3:03 AM,1.4,-2.2,85,29.96,0.5,NW,13.8,23.0,0.00,Snow,Snow,320,2013-01-21 08:03:00
3:53 AM,1.0,-4.0,79,30.04,0.5,NW,16.1,-,0.00,Snow,Snow,310,2013-01-21 08:53:00
4:04 AM,1.4,-4.0,78,29.94,0.8,NW,17.3,-,N/A,Snow,Light Snow,310,2013-01-21 09:04:00
4:27 AM,1.4,-4.0,78,29.94,1.0,WNW,11.5,-,0.00,Snow,Light Snow,300,2013-01-21 09:27:00
4:39 AM,1.4,-5.8,72,29.93,0.8,NW,15.0,21.9,0.00,Snow,Light Snow,310,2013-01-21 09:39:00
4:53 AM,1.0,-4.0,79,30.02,0.8,WNW,12.7,-,0.00,Snow,Light Snow,300,2013-01-21 09:53:00
5:06 AM,1.4,-4.0,78,29.93,0.5,NW,15.0,-,0.00,Snow,Snow,310,2013-01-21 10:06:00
5:15 AM,1.4,-4.0,78,29.93,0.2,WNW,12.7,-,0.00,Snow,Heavy Snow,300,2013-01-21 10:15:00
5:25 AM,1.4,-4.0,78,29.93,0.5,WNW,16.1,-,0.00,Snow,Snow,300,2013-01-21 10:25:00
5:34 AM,1.4,-4.0,78,29.92,0.2,WNW,12.7,-,0.00,Snow,Heavy Snow,300,2013-01-21 10:34:00
5:41 AM,1.4,-4.0,78,29.92,0.5,WNW,16.1,21.9,0.00,Snow,Snow,300,2013-01-21 10:41:00
5:46 AM,1.4,-5.8,72,29.92,1.0,WNW,12.7,21.9,0.00,Snow,Light Snow,290,2013-01-21 10:46:00
5:51 AM,1.4,-7.6,66,29.92,4.0,West,13.8,-,0.00,Snow,Light Snow,280,2013-01-21 10:51:00
5:53 AM,1.0,-8.0,66,30.01,4.0,West,15.0,-,0.00,Snow,Light Snow,280,2013-01-21 10:53:00
5:56 AM,1.4,-7.6,66,29.92,0.8,West,15.0,-,0.00,Snow,Light Snow,280,2013-01-21 10:56:00
6:13 AM,-0.4,-5.8,78,29.92,2.0,WNW,13.8,-,0.00,Snow,Light Snow,290,2013-01-21 11:13:00
6:25 AM,-0.4,-7.6,72,29.93,0.8,WNW,13.8,-,0.00,Snow,Light Snow,290,2013-01-21 11:25:00
6:36 AM,-0.4,-4.0,85,29.93,0.2,WNW,13.8,-,0.00,Fog-Snow,Heavy Snow,300,2013-01-21 11:36:00
6:44 AM,-0.4,-4.0,85,29.93,0.2,WNW,16.1,23.0,0.00,Fog-Snow,Snow,300,2013-01-21 11:44:00
6:51 AM,-0.4,-4.0,85,29.93,0.2,WNW,16.1,-,0.00,Fog-Snow,Snow,290,2013-01-21 11:51:00
6:53 AM,-0.0,-4.0,83,30.02,0.2,WNW,13.8,-,0.00,Fog-Snow,Heavy Snow,300,2013-01-21 11:53:00
7:12 AM,-0.4,-5.8,78,29.92,0.2,WNW,15.0,-,0.00,Snow,Heavy Snow,300,2013-01-21 12:12:00
7:43 AM,-0.4,-5.8,78,29.92,0.2,WNW,17.3,-,0.00,Fog-Snow,Snow,300,2013-01-21 12:43:00
7:53 AM,-0.9,-6.0,79,30.01,0.2,WNW,18.4,25.3,0.00,Snow,Heavy Snow,300,2013-01-21 12:53:00
8:25 AM,-2.2,-5.8,85,29.92,0.2,NW,18.4,26.5,0.00,Fog-Snow,Snow,310,2013-01-21 13:25:00
8:43 AM,-2.2,-7.6,78,29.92,0.2,WNW,18.4,26.5,0.00,Snow,Heavy Snow,300,2013-01-21 13:43:00
8:53 AM,-2.0,-7.1,79,30.02,0.2,NW,17.3,25.3,0.00,Snow,Heavy Snow,310,2013-01-21 13:53:00
9:29 AM,-2.2,-7.6,78,29.94,0.2,NW,20.7,-,0.00,Fog-Snow,Snow,310,2013-01-21 14:29:00
9:53 AM,-4.0,-8.0,83,30.04,0.2,NW,19.6,-,0.00,Fog-Snow,Snow,310,2013-01-21 14:53:00
10:09 AM,-4.0,-9.4,78,29.95,0.2,WNW,18.4,-,0.00,Snow,Heavy Snow,300,2013-01-21 15:09:00
10:53 AM,-5.1,-9.9,80,30.06,0.2,NW,19.6,-,0.00,Snow,Heavy Snow,310,2013-01-21 15:53:00
11:05 AM,-5.8,-9.4,84,29.97,0.5,NW,15.0,-,0.00,Snow,Snow,310,2013-01-21 16:05:00
11:22 AM,-5.8,-11.2,77,29.98,0.2,WNW,18.4,-,0.00,Snow,Heavy Snow,300,2013-01-21 16:22:00
11:53 AM,-6.0,-11.0,79,30.08,0.2,NW,16.1,-,0.00,Snow,Heavy Snow,310,2013-01-21 16:53:00
12:53 PM,-7.1,-11.9,79,30.07,0.2,WNW,18.4,-,0.00,Snow,Heavy Snow,300,2013-01-21 17:53:00
1:33 PM,-7.6,-13.0,77,29.97,0.5,WNW,17.3,-,0.00,Snow,Snow,300,2013-01-21 18:33:00
1:50 PM,-7.6,-13.0,77,29.97,0.2,NW,18.4,-,0.00,Snow,Heavy Snow,320,2013-01-21 18:50:00
1:53 PM,-8.0,-13.0,79,30.07,0.2,NW,18.4,-,0.00,Snow,Heavy Snow,320,2013-01-21 18:53:00
2:05 PM,-7.6,-13.0,77,29.97,0.5,NW,17.3,-,0.00,Snow,Snow,310,2013-01-21 19:05:00
2:19 PM,-7.6,-13.0,77,29.97,0.2,NW,17.3,-,0.00,Snow,Heavy Snow,310,2013-01-21 19:19:00
2:42 PM,-7.6,-13.0,77,29.97,0.5,WNW,18.4,26.5,0.00,Snow,Snow,300,2013-01-21 19:42:00
2:49 PM,-7.6,-14.8,71,29.97,0.2,WNW,17.3,26.5,0.00,Snow,Heavy Snow,300,2013-01-21 19:49:00
2:53 PM,-8.0,-13.0,79,30.08,0.2,WNW,16.1,-,0.00,Snow,Heavy Snow,290,2013-01-21 19:53:00
3:09 PM,-7.6,-14.8,71,29.98,0.5,WNW,19.6,-,0.00,Snow,Snow,290,2013-01-21 20:09:00
3:19 PM,-7.6,-14.8,71,29.98,0.2,WNW,18.4,27.6,0.00,Snow,Heavy Snow,290,2013-01-21 20:19:00
3:28 PM,-7.6,-14.8,71,29.98,0.2,WNW,16.1,-,0.00,Snow,Heavy Snow,300,2013-01-21 20:28:00
3:53 PM,-8.0,-14.1,75,30.09,0.5,WNW,15.0,-,0.00,Snow,Snow,300,2013-01-21 20:53:00
4:13 PM,-7.6,-14.8,71,30.00,0.2,WNW,15.0,-,0.00,Snow,Heavy Snow,300,2013-01-21 21:13:00
4:22 PM,-7.6,-13.0,77,30.00,0.2,WNW,13.8,23.0,0.00,Snow,Heavy Snow,290,2013-01-21 21:22:00
4:49 PM,-7.6,-14.8,71,30.00,0.5,WNW,20.7,-,0.00,Snow,Snow,300,2013-01-21 21:49:00
4:53 PM,-8.0,-14.1,75,30.10,0.5,WNW,17.3,-,0.00,Snow,Snow,300,2013-01-21 21:53:00
5:01 PM,-7.6,-13.0,77,30.00,0.5,WNW,15.0,24.2,0.00,Snow,Snow,300,2013-01-21 22:01:00
5:09 PM,-7.6,-13.0,77,30.01,0.8,WNW,16.1,-,0.00,Snow,Light Snow,300,2013-01-21 22:09:00
5:16 PM,-7.6,-14.8,71,30.01,1.0,WNW,16.1,-,0.00,Snow,Light Snow,300,2013-01-21 22:16:00
5:27 PM,-7.6,-14.8,71,30.01,0.8,NW,15.0,24.2,0.00,Snow,Light Snow,310,2013-01-21 22:27:00
5:50 PM,-7.6,-13.0,77,30.01,1.2,WNW,15.0,-,0.00,Snow,Light Snow,300,2013-01-21 22:50:00
5:53 PM,-8.0,-13.0,79,30.12,1.2,NW,16.1,-,0.00,Snow,Light Snow,310,2013-01-21 22:53:00
6:06 PM,-7.6,-13.0,77,30.01,0.8,NW,16.1,24.2,0.00,Snow,Light Snow,310,2013-01-21 23:06:00
6:17 PM,-7.6,-14.8,71,30.02,1.0,NW,19.6,-,0.00,Snow,Light Snow,310,2013-01-21 23:17:00
6:26 PM,-7.6,-14.8,71,30.02,0.8,WNW,18.4,-,0.00,Snow,Light Snow,300,2013-01-21 23:26:00
6:53 PM,-7.1,-11.9,79,30.13,0.5,NW,19.6,-,0.00,Snow,Snow,310,2013-01-21 23:53:00
7:53 PM,-7.1,-11.9,79,30.14,0.5,NW,15.0,25.3,0.00,Snow,Snow,310,2013-01-22 00:53:00
8:04 PM,-7.6,-11.2,84,30.03,0.2,NW,16.1,29.9,0.00,Fog-Snow,Snow,320,2013-01-22 01:04:00
8:11 PM,-7.6,-11.2,84,30.04,0.5,NW,15.0,-,0.00,Fog-Snow,Snow,320,2013-01-22 01:11:00
8:22 PM,-7.6,-11.2,84,30.04,0.8,NW,18.4,24.2,0.00,Snow,Light Snow,310,2013-01-22 01:22:00
8:39 PM,-7.6,-13.0,77,30.04,0.2,NW,18.4,25.3,0.00,Snow,Heavy Snow,320,2013-01-22 01:39:00
8:46 PM,-7.6,-13.0,77,30.04,0.8,NW,17.3,-,0.00,Snow,Light Snow,320,2013-01-22 01:46:00
8:50 PM,-7.6,-13.0,77,30.05,1.0,NW,15.0,-,0.00,Snow,Light Snow,320,2013-01-22 01:50:00
8:53 PM,-8.0,-13.0,79,30.15,1.0,NW,17.3,-,0.00,Snow,Light Snow,310,2013-01-22 01:53:00
9:03 PM,-7.6,-13.0,77,30.04,0.8,NNW,17.3,25.3,0.00,Snow,Light Snow,330,2013-01-22 02:03:00
9:18 PM,-7.6,-14.8,71,30.05,1.0,NW,15.0,-,N/A,Snow,Light Snow,320,2013-01-22 02:18:00
9:25 PM,-7.6,-14.8,71,30.05,0.8,NNW,18.4,-,0.00,Snow,Light Snow,330,2013-01-22 02:25:00
9:50 PM,-7.6,-14.8,71,30.05,1.2,NNW,13.8,-,0.00,Snow,Light Snow,330,2013-01-22 02:50:00
9:53 PM,-8.0,-14.1,75,30.16,1.0,NNW,12.7,-,0.00,Snow,Light Snow,330,2013-01-22 02:53:00
10:03 PM,-7.6,-13.0,77,30.05,0.5,NNW,12.7,27.6,0.00,Snow,Snow,330,2013-01-22 03:03:00
10:25 PM,-9.4,-14.8,77,30.05,0.8,NNW,12.7,23.0,0.00,,Haze,340,2013-01-22 03:25:00
10:41 PM,-9.4,-13.0,84,30.06,1.0,NNW,12.7,23.0,0.00,,Mist,340,2013-01-22 03:41:00
10:53 PM,-9.0,-14.1,79,30.16,1.0,NNW,11.5,21.9,0.00,,Haze,340,2013-01-22 03:53:00
11:53 PM,-9.0,-15.0,75,30.17,1.2,NNW,12.7,-,N/A,,Haze,340,2013-01-22 04:53:00